Time,TemperatureF,DewpointF,PressureIn,WindDirection,WindDirectionDegrees,WindSpeedMPH,WindSpeedGustMPH,Humidity,HourlyPrecipIn,Conditions,Clouds,dailyrainin,SolarRadiationWatts/m^2,SoftwareType,DateUTC
2013-02-11 00:01:00,49.2,47.0,29.54,SSW,210,5.0,14.0,91,0.00,,,0.14,0,weatherlink.com 1.10,2013-02-11 05:01:00,
2013-02-11 00:16:00,49.5,47.0,29.53,SSW,200,6.0,16.0,91,0.00,,,0.14,0,weatherlink.com 1.10,2013-02-11 05:16:00,
2013-02-11 00:31:00,49.7,47.0,29.53,SSE,158,6.0,15.0,91,0.00,,,0.14,0,weatherlink.com 1.10,2013-02-11 05:31:00,
2013-02-11 00:46:00,49.7,47.0,29.53,SW,224,8.0,20.0,91,0.00,,,0.14,0,weatherlink.com 1.10,2013-02-11 05:46:00,
2013-02-11 01:02:00,49.6,47.0,29.53,WSW,240,5.0,17.0,91,0.00,,,0.14,0,weatherlink.com 1.10,2013-02-11 06:02:00,
2013-02-11 01:16:00,49.5,47.0,29.53,SW,218,15.0,22.0,90,0.00,,,0.14,0,weatherlink.com 1.10,2013-02-11 06:16:00,
2013-02-11 01:31:00,49.6,47.0,29.53,SSW,203,7.0,18.0,90,0.00,,,0.14,0,weatherlink.com 1.10,2013-02-11 06:31:00,
2013-02-11 01:46:00,49.5,47.0,29.52,SW,223,8.0,20.0,90,0.00,,,0.14,0,weatherlink.com 1.10,2013-02-11 06:46:00,
2013-02-11 02:01:00,49.3,46.0,29.52,SW,214,8.0,18.0,89,0.00,,,0.14,0,weatherlink.com 1.10,2013-02-11 07:01:00,
2013-02-11 02:16:00,49.6,45.0,29.53,SW,229,16.0,31.0,84,0.01,,,0.15,0,weatherlink.com 1.10,2013-02-11 07:16:00,
2013-02-11 02:31:00,49.0,45.0,29.54,WSW,252,12.0,22.0,85,0.01,,,0.15,0,weatherlink.com 1.10,2013-02-11 07:31:00,
2013-02-11 02:47:00,48.3,39.0,29.53,West,266,15.0,33.0,69,0.01,,,0.15,0,weatherlink.com 1.10,2013-02-11 07:47:00,
2013-02-11 03:02:00,47.4,37.0,29.54,WSW,243,11.0,26.0,67,0.01,,,0.15,0,weatherlink.com 1.10,2013-02-11 08:02:00,
2013-02-11 03:17:00,46.4,36.0,29.54,WSW,251,18.0,26.0,66,0.00,,,0.15,0,weatherlink.com 1.10,2013-02-11 08:17:00,
2013-02-11 03:32:00,45.7,35.0,29.53,WSW,241,11.0,32.0,67,0.00,,,0.15,0,weatherlink.com 1.10,2013-02-11 08:32:00,
2013-02-11 03:47:00,45.0,35.0,29.54,SSW,208,13.0,27.0,68,0.00,,,0.15,0,weatherlink.com 1.10,2013-02-11 08:47:00,
2013-02-11 04:02:00,43.9,34.0,29.54,WSW,247,15.0,32.0,68,0.00,,,0.15,0,weatherlink.com 1.10,2013-02-11 09:02:00,
2013-02-11 04:17:00,42.8,33.0,29.54,SW,234,16.0,28.0,69,0.00,,,0.15,0,weatherlink.com 1.10,2013-02-11 09:17:00,
2013-02-11 04:32:00,41.9,32.0,29.55,SSW,200,10.0,26.0,69,0.00,,,0.15,0,weatherlink.com 1.10,2013-02-11 09:32:00,
2013-02-11 04:47:00,41.4,32.0,29.55,WSW,245,16.0,24.0,70,0.00,,,0.15,0,weatherlink.com 1.10,2013-02-11 09:47:00,
2013-02-11 05:02:00,41.0,32.0,29.56,WSW,242,11.0,22.0,71,0.00,,,0.15,0,weatherlink.com 1.10,2013-02-11 10:02:00,
2013-02-11 05:17:00,40.8,32.0,29.56,WSW,256,17.0,33.0,71,0.00,,,0.15,0,weatherlink.com 1.10,2013-02-11 10:17:00,
2013-02-11 05:32:00,40.5,31.0,29.56,SW,231,18.0,27.0,70,0.00,,,0.15,0,weatherlink.com 1.10,2013-02-11 10:32:00,
2013-02-11 05:47:00,40.0,32.0,29.57,WSW,250,11.0,34.0,73,0.00,,,0.00,0,weatherlink.com 1.10,2013-02-11 10:47:00,
2013-02-11 06:02:00,39.1,30.0,29.58,West,272,8.0,32.0,69,0.00,,,0.00,0,weatherlink.com 1.10,2013-02-11 11:02:00,
2013-02-11 06:17:00,38.5,29.0,29.59,WSW,241,17.0,24.0,70,0.00,,,0.00,0,weatherlink.com 1.10,2013-02-11 11:17:00,
2013-02-11 06:32:00,38.1,29.0,29.59,SSW,211,6.0,21.0,71,0.00,,,0.00,0,weatherlink.com 1.10,2013-02-11 11:32:00,
2013-02-11 06:47:00,37.7,30.0,29.60,WSW,241,9.0,26.0,73,0.00,,,0.00,0,weatherlink.com 1.10,2013-02-11 11:47:00,
2013-02-11 07:02:00,37.0,29.0,29.60,WSW,243,13.0,27.0,74,0.00,,,0.00,0,weatherlink.com 1.10,2013-02-11 12:02:00,
2013-02-11 07:17:00,36.4,29.0,29.61,WSW,257,12.0,28.0,73,0.00,,,0.00,0,weatherlink.com 1.10,2013-02-11 12:17:00,
2013-02-11 07:32:00,35.9,28.0,29.62,WNW,297,14.0,29.0,72,0.00,,,0.00,0,weatherlink.com 1.10,2013-02-11 12:32:00,
2013-02-11 07:47:00,35.3,27.0,29.63,WSW,251,29.0,29.0,71,0.00,,,0.00,0,weatherlink.com 1.10,2013-02-11 12:47:00,
2013-02-11 08:02:00,35.0,26.0,29.64,West,279,11.0,26.0,71,0.00,,,0.00,0,weatherlink.com 1.10,2013-02-11 13:02:00,
2013-02-11 08:17:00,34.8,26.0,29.64,SW,224,12.0,29.0,71,0.00,,,0.00,7,weatherlink.com 1.10,2013-02-11 13:17:00,
2013-02-11 08:32:00,34.8,26.0,29.65,WSW,249,15.0,26.0,70,0.00,,,0.00,9,weatherlink.com 1.10,2013-02-11 13:32:00,
2013-02-11 08:47:00,34.5,26.0,29.65,West,274,18.0,26.0,71,0.00,,,0.00,14,weatherlink.com 1.10,2013-02-11 13:47:00,
2013-02-11 09:04:00,34.4,26.0,29.66,SW,226,9.0,27.0,70,0.00,,,0.00,23,weatherlink.com 1.10,2013-02-11 14:04:00,
2013-02-11 09:17:00,34.3,25.0,29.67,WSW,254,5.0,27.0,68,0.00,,,0.00,19,weatherlink.com 1.10,2013-02-11 14:17:00,
2013-02-11 09:32:00,34.1,25.0,29.67,SW,214,9.0,26.0,69,0.00,,,0.00,26,weatherlink.com 1.10,2013-02-11 14:32:00,
2013-02-11 09:48:00,34.1,25.0,29.68,WSW,256,7.0,31.0,69,0.00,,,0.00,49,weatherlink.com 1.10,2013-02-11 14:48:00,
2013-02-11 10:03:00,34.2,24.0,29.68,SW,214,10.0,25.0,67,0.00,,,0.00,40,weatherlink.com 1.10,2013-02-11 15:03:00,
2013-02-11 10:18:00,34.1,25.0,29.68,WSW,239,15.0,30.0,68,0.00,,,0.00,51,weatherlink.com 1.10,2013-02-11 15:18:00,
2013-02-11 10:33:00,34.0,25.0,29.69,SSW,210,15.0,19.0,70,0.00,,,0.00,51,weatherlink.com 1.10,2013-02-11 15:33:00,
2013-02-11 10:48:00,33.8,25.0,29.69,WSW,249,13.0,25.0,70,0.00,,,0.00,44,weatherlink.com 1.10,2013-02-11 15:48:00,
2013-02-11 11:03:00,34.0,24.0,29.69,SSW,210,20.0,31.0,68,0.00,,,0.00,91,weatherlink.com 1.10,2013-02-11 16:03:00,
2013-02-11 11:18:00,34.0,24.0,29.70,West,274,11.0,30.0,68,0.00,,,0.00,84,weatherlink.com 1.10,2013-02-11 16:18:00,
2013-02-11 11:33:00,33.9,25.0,29.70,West,265,14.0,27.0,71,0.00,,,0.00,151,weatherlink.com 1.10,2013-02-11 16:33:00,
2013-02-11 11:48:00,34.3,25.0,29.70,WNW,298,11.0,31.0,68,0.00,,,0.00,195,weatherlink.com 1.10,2013-02-11 16:48:00,
2013-02-11 12:03:00,34.6,24.0,29.71,SSW,196,7.0,34.0,66,0.00,,,0.00,141,weatherlink.com 1.10,2013-02-11 17:03:00,
2013-02-11 12:18:00,34.7,24.0,29.71,WSW,237,24.0,33.0,66,0.00,,,0.00,167,weatherlink.com 1.10,2013-02-11 17:18:00,
2013-02-11 12:33:00,34.3,24.0,29.73,West,266,8.0,28.0,67,0.00,,,0.00,118,weatherlink.com 1.10,2013-02-11 17:33:00,
2013-02-11 12:48:00,34.3,25.0,29.73,WSW,252,11.0,28.0,68,0.00,,,0.00,139,weatherlink.com 1.10,2013-02-11 17:48:00,
2013-02-11 13:03:00,33.7,24.0,29.73,West,260,16.0,29.0,67,0.00,,,0.00,121,weatherlink.com 1.10,2013-02-11 18:03:00,
2013-02-11 13:18:00,33.8,24.0,29.73,West,264,16.0,28.0,68,0.00,,,0.00,144,weatherlink.com 1.10,2013-02-11 18:18:00,
2013-02-11 13:33:00,34.0,24.0,29.74,West,266,15.0,27.0,68,0.00,,,0.00,144,weatherlink.com 1.10,2013-02-11 18:33:00,
2013-02-11 13:48:00,33.9,25.0,29.74,WSW,246,9.0,26.0,69,0.00,,,0.00,165,weatherlink.com 1.10,2013-02-11 18:48:00,
2013-02-11 14:03:00,34.1,25.0,29.74,WSW,243,16.0,28.0,69,0.00,,,0.00,132,weatherlink.com 1.10,2013-02-11 19:03:00,
2013-02-11 14:18:00,34.2,25.0,29.74,WNW,285,9.0,29.0,69,0.00,,,0.00,128,weatherlink.com 1.10,2013-02-11 19:18:00,
2013-02-11 14:33:00,34.2,25.0,29.75,WSW,244,15.0,32.0,68,0.00,,,0.00,109,weatherlink.com 1.10,2013-02-11 19:33:00,
2013-02-11 14:49:00,33.8,25.0,29.76,WSW,245,12.0,28.0,69,0.00,,,0.00,90,weatherlink.com 1.10,2013-02-11 19:49:00,
2013-02-11 15:03:00,33.5,25.0,29.76,WSW,247,9.0,33.0,70,0.00,,,0.00,77,weatherlink.com 1.10,2013-02-11 20:03:00,
2013-02-11 15:18:00,33.6,25.0,29.77,SW,220,5.0,20.0,71,0.00,,,0.00,67,weatherlink.com 1.10,2013-02-11 20:18:00,
2013-02-11 15:33:00,33.4,25.0,29.77,SSW,202,7.0,30.0,70,0.00,,,0.00,86,weatherlink.com 1.10,2013-02-11 20:33:00,
2013-02-11 15:48:00,33.5,25.0,29.78,SW,217,7.0,21.0,70,0.00,,,0.00,70,weatherlink.com 1.10,2013-02-11 20:48:00,
2013-02-11 16:03:00,33.6,25.0,29.79,WSW,240,10.0,22.0,70,0.00,,,0.00,62,weatherlink.com 1.10,2013-02-11 21:03:00,
2013-02-11 16:18:00,33.3,25.0,29.80,WSW,255,6.0,24.0,71,0.00,,,0.00,47,weatherlink.com 1.10,2013-02-11 21:18:00,
2013-02-11 16:33:00,33.2,25.0,29.81,WSW,255,9.0,24.0,71,0.00,,,0.00,46,weatherlink.com 1.10,2013-02-11 21:33:00,
2013-02-11 16:49:00,33.2,25.0,29.81,WSW,254,11.0,22.0,71,0.00,,,0.00,49,weatherlink.com 1.10,2013-02-11 21:49:00,
2013-02-11 17:03:00,33.2,25.0,29.82,SW,216,10.0,18.0,71,0.00,,,0.00,28,weatherlink.com 1.10,2013-02-11 22:03:00,
2013-02-11 17:19:00,33.1,25.0,29.82,West,276,8.0,26.0,72,0.00,,,0.00,18,weatherlink.com 1.10,2013-02-11 22:19:00,
2013-02-11 17:34:00,33.0,25.0,29.84,West,269,5.0,25.0,72,0.00,,,0.00,16,weatherlink.com 1.10,2013-02-11 22:34:00,
2013-02-11 17:49:00,32.8,25.0,29.84,WSW,253,13.0,20.0,73,0.00,,,0.00,5,weatherlink.com 1.10,2013-02-11 22:49:00,
2013-02-11 18:04:00,32.6,25.0,29.85,West,260,9.0,19.0,74,0.00,,,0.00,0,weatherlink.com 1.10,2013-02-11 23:04:00,
2013-02-11 18:19:00,32.5,25.0,29.85,NNW,343,6.0,23.0,73,0.00,,,0.00,0,weatherlink.com 1.10,2013-02-11 23:19:00,
2013-02-11 18:34:00,32.5,25.0,29.86,WNW,285,11.0,23.0,74,0.00,,,0.00,0,weatherlink.com 1.10,2013-02-11 23:34:00,
2013-02-11 18:49:00,32.3,25.0,29.87,West,267,6.0,19.0,73,0.00,,,0.00,0,weatherlink.com 1.10,2013-02-11 23:49:00,
2013-02-11 19:04:00,32.0,24.0,29.87,WNW,294,10.0,20.0,72,0.00,,,0.00,0,weatherlink.com 1.10,2013-02-12 00:04:00,
2013-02-11 19:19:00,31.9,24.0,29.88,West,260,15.0,19.0,73,0.00,,,0.00,0,weatherlink.com 1.10,2013-02-12 00:19:00,
2013-02-11 19:34:00,31.8,24.0,29.88,NW,316,4.0,17.0,74,0.00,,,0.00,0,weatherlink.com 1.10,2013-02-12 00:34:00,
2013-02-11 19:49:00,31.7,24.0,29.88,NW,314,9.0,22.0,72,0.00,,,0.00,0,weatherlink.com 1.10,2013-02-12 00:49:00,
2013-02-11 20:04:00,31.4,23.0,29.89,SSE,168,7.0,24.0,72,0.00,,,0.00,0,weatherlink.com 1.10,2013-02-12 01:04:00,
2013-02-11 20:19:00,31.4,24.0,29.89,WSW,253,9.0,23.0,73,0.00,,,0.00,0,weatherlink.com 1.10,2013-02-12 01:19:00,
2013-02-11 20:34:00,31.3,24.0,29.89,NNE,14,5.0,21.0,73,0.00,,,0.00,0,weatherlink.com 1.10,2013-02-12 01:34:00,
2013-02-11 20:49:00,31.3,24.0,29.90,NW,308,4.0,22.0,73,0.00,,,0.00,0,weatherlink.com 1.10,2013-02-12 01:49:00,
2013-02-11 21:04:00,31.2,24.0,29.90,NW,308,5.0,23.0,74,0.00,,,0.00,0,weatherlink.com 1.10,2013-02-12 02:04:00,
2013-02-11 21:19:00,31.1,24.0,29.91,West,267,10.0,20.0,75,0.00,,,0.00,0,weatherlink.com 1.10,2013-02-12 02:19:00,
2013-02-11 21:34:00,31.1,24.0,29.91,West,268,6.0,16.0,74,0.00,,,0.00,0,weatherlink.com 1.10,2013-02-12 02:34:00,
2013-02-11 21:49:00,30.9,24.0,29.91,WNW,299,7.0,15.0,76,0.00,,,0.00,0,weatherlink.com 1.10,2013-02-12 02:49:00,
2013-02-11 22:04:00,30.8,24.0,29.91,WNW,292,10.0,15.0,75,0.00,,,0.00,0,weatherlink.com 1.10,2013-02-12 03:04:00,
2013-02-11 22:20:00,30.7,23.0,29.91,SSW,203,6.0,16.0,74,0.00,,,0.00,0,weatherlink.com 1.10,2013-02-12 03:20:00,
2013-02-11 22:34:00,30.7,23.0,29.92,West,274,7.0,14.0,74,0.00,,,0.00,0,weatherlink.com 1.10,2013-02-12 03:34:00,
2013-02-11 22:50:00,30.7,24.0,29.93,WSW,250,6.0,17.0,75,0.00,,,0.00,0,weatherlink.com 1.10,2013-02-12 03:50:00,
2013-02-11 23:04:00,30.7,24.0,29.93,WSW,257,3.0,11.0,75,0.00,,,0.00,0,weatherlink.com 1.10,2013-02-12 04:04:00,
2013-02-11 23:19:00,30.6,24.0,29.93,West,276,3.0,13.0,75,0.00,,,0.00,0,weatherlink.com 1.10,2013-02-12 04:19:00,
2013-02-11 23:34:00,30.6,23.0,29.94,WNW,290,10.0,11.0,74,0.00,,,0.00,0,weatherlink.com 1.10,2013-02-12 04:34:00,
2013-02-11 23:50:00,30.5,23.0,29.94,WNW,295,8.0,16.0,74,0.00,,,0.00,0,weatherlink.com 1.10,2013-02-12 04:50:00,